TimeCST,TemperatureF,Dew PointF,Humidity,Sea Level PressureIn,VisibilityMPH,Wind Direction,Wind SpeedMPH,Gust SpeedMPH,PrecipitationIn,Events,Conditions,WindDirDegrees,DateUTC
12:54 AM,25.0,21.0,85,29.93,7.0,WNW,8.1,-,N/A,,Overcast,290,2013-02-24 06:54:00
1:54 AM,25.0,21.0,85,29.94,6.0,WNW,10.4,-,N/A,,Overcast,290,2013-02-24 07:54:00
2:05 AM,24.8,21.2,86,29.88,6.0,WNW,10.4,-,N/A,,Overcast,290,2013-02-24 08:05:00
2:28 AM,24.8,21.2,86,29.88,5.0,WNW,6.9,-,N/A,,Overcast,290,2013-02-24 08:28:00
2:54 AM,25.0,21.0,85,29.95,4.0,WNW,8.1,-,0.00,Snow,Light Snow,290,2013-02-24 08:54:00
3:54 AM,25.0,21.0,85,29.96,5.0,WNW,6.9,-,0.00,,Overcast,290,2013-02-24 09:54:00
4:54 AM,25.0,21.0,85,29.98,5.0,West,5.8,-,N/A,,Overcast,280,2013-02-24 10:54:00
5:54 AM,25.0,21.0,85,30.00,5.0,West,4.6,-,N/A,,Overcast,270,2013-02-24 11:54:00
6:28 AM,24.8,21.2,86,29.95,6.0,WNW,4.6,-,N/A,,Overcast,300,2013-02-24 12:28:00
6:39 AM,24.8,21.2,86,29.96,6.0,NW,4.6,-,N/A,,Overcast,310,2013-02-24 12:39:00
6:54 AM,25.0,21.9,88,30.02,4.0,Calm,Calm,-,N/A,,Overcast,0,2013-02-24 12:54:00
7:54 AM,26.1,21.9,84,30.04,6.0,NW,3.5,-,N/A,,Overcast,310,2013-02-24 13:54:00
8:54 AM,28.0,21.9,78,30.06,10.0,NW,4.6,-,N/A,,Overcast,310,2013-02-24 14:54:00
9:18 AM,28.4,21.2,74,30.01,10.0,North,4.6,-,N/A,,Overcast,350,2013-02-24 15:18:00
9:54 AM,28.9,19.9,69,30.07,10.0,NNW,5.8,-,N/A,,Overcast,330,2013-02-24 15:54:00
10:54 AM,30.0,18.0,61,30.08,10.0,NW,5.8,-,N/A,,Overcast,310,2013-02-24 16:54:00
11:54 AM,30.0,18.0,61,30.09,10.0,West,3.5,-,N/A,,Overcast,270,2013-02-24 17:54:00
12:23 PM,30.2,17.6,60,30.02,10.0,Calm,Calm,-,N/A,,Overcast,0,2013-02-24 18:23:00
12:54 PM,30.9,19.0,61,30.09,10.0,Variable,4.6,-,N/A,,Overcast,0,2013-02-24 18:54:00
1:54 PM,30.9,18.0,59,30.09,10.0,Variable,3.5,-,N/A,,Scattered Clouds,0,2013-02-24 19:54:00
2:54 PM,30.9,19.0,61,30.09,10.0,West,5.8,-,N/A,,Mostly Cloudy,280,2013-02-24 20:54:00
3:54 PM,30.9,19.9,64,30.10,10.0,WNW,5.8,-,N/A,,Overcast,290,2013-02-24 21:54:00
4:54 PM,30.0,19.9,66,30.09,10.0,West,4.6,-,N/A,,Overcast,270,2013-02-24 22:54:00
5:54 PM,30.0,19.9,66,30.11,10.0,Calm,Calm,-,N/A,,Overcast,0,2013-02-24 23:54:00
6:29 PM,30.2,19.4,64,30.05,10.0,WSW,5.8,-,N/A,,Overcast,250,2013-02-25 00:29:00
6:54 PM,30.9,19.9,64,30.12,10.0,Calm,Calm,-,N/A,,Overcast,0,2013-02-25 00:54:00
7:54 PM,30.0,19.9,66,30.13,10.0,SW,4.6,-,N/A,,Overcast,230,2013-02-25 01:54:00
8:21 PM,28.4,19.4,69,30.07,10.0,WSW,3.5,-,N/A,,Partly Cloudy,250,2013-02-25 02:21:00
8:54 PM,28.0,19.9,72,30.12,10.0,NNW,3.5,-,N/A,,Scattered Clouds,340,2013-02-25 02:54:00
9:54 PM,24.1,19.0,81,30.12,10.0,Calm,Calm,-,N/A,,Partly Cloudy,0,2013-02-25 03:54:00
10:54 PM,23.0,19.0,85,30.13,10.0,East,3.5,-,N/A,,Clear,90,2013-02-25 04:54:00
11:54 PM,21.0,18.0,88,30.13,10.0,Calm,Calm,-,N/A,,Clear,0,2013-02-25 05:54:00